Date String (YYYY-MM-DD hh:mm:ss) UTC,Instrument flags,Ambient pressure (hPa),Sample flow (lpm),Bypass flow (lpm),Sample temperature (°C),Ambient temperature (°C),ASC tube jacket temperature (°C),LED temperature (°C),Box temperature (°C),Sample RH (%),Span deviation,Mass concentration (μg/m³),Mass concentration (μg/m³),Mass concentration (μg/m³)
DateTimeUTC,F1_M11,P_M11,Q1_M11,Q2_M11,T1_M11,T2_M11,T3_M11,T4_M11,T5_M11,U1_M11,ZSPAN_M11,X0_M11,X2_M11,X1_M11
2022-11-28 23:00:00,,0807.9,5.00,0.00,22.2,20.8,00.0,31.1,24.0,08.6,0000.0,0000.93,0000.60,0000.43
2022-11-28 23:01:00,,0807.8,5.01,0.00,22.2,20.8,00.0,31.1,23.9,08.8,0000.0,0001.08,0000.62,0000.44
2022-11-28 23:02:00,,0807.9,5.00,0.00,22.2,20.8,00.0,31.1,23.9,08.6,0000.0,0001.14,0000.64,0000.44
2022-11-28 23:03:00,,0808.0,5.00,0.00,22.2,20.8,00.0,31.1,23.9,08.6,0000.0,0001.11,0000.63,0000.43
2022-11-28 23:04:00,,0808.0,5.00,0.00,22.2,20.8,00.0,31.1,23.9,08.6,0000.0,0001.07,0000.61,0000.43
2022-11-28 23:05:00,,0807.9,5.00,0.00,22.2,20.8,00.0,31.1,24.0,08.7,0000.0,0001.05,0000.62,0000.44
2022-11-28 23:06:00,,0807.8,5.00,0.00,22.2,20.8,00.0,31.1,23.9,08.5,0000.0,0001.02,0000.62,0000.44
2022-11-28 23:07:00,,0807.8,5.00,0.00,22.2,20.8,00.0,31.1,23.9,08.3,0000.0,0001.05,0000.62,0000.44
2022-11-28 23:08:00,,0807.8,5.00,0.00,22.2,20.8,00.0,31.1,23.9,08.2,0000.0,0001.08,0000.63,0000.45
2022-11-28 23:09:00,,0807.8,5.00,0.00,22.2,20.8,00.0,31.1,23.9,08.4,0000.0,0001.09,0000.63,0000.45
2022-11-28 23:10:00,,0807.8,4.99,0.00,22.2,20.8,00.0,31.1,23.9,08.6,0000.0,0001.11,0000.62,0000.45
2022-11-28 23:11:00,,0807.8,5.00,0.00,22.2,20.8,00.0,31.1,23.9,08.6,0000.0,0001.17,0000.63,0000.45
2022-11-28 23:12:00,,0807.7,5.00,0.00,22.2,20.8,00.0,31.1,23.9,08.4,0000.0,0001.37,0000.61,0000.45
2022-11-28 23:13:00,,0807.7,5.00,0.00,22.2,20.8,00.0,31.1,23.9,08.1,0000.0,0002.08,0000.61,0000.44
2022-11-28 23:14:00,,0807.7,5.00,0.00,22.2,20.8,00.0,31.1,23.9,08.2,0000.0,0002.11,0000.62,0000.44
2022-11-28 23:15:00,,0807.8,5.00,0.00,22.2,20.8,00.0,31.1,23.9,08.3,0000.0,0002.18,0000.64,0000.45
2022-11-28 23:16:00,,0807.7,5.00,0.00,22.2,20.8,00.0,31.1,23.9,08.3,0000.0,0002.32,0000.67,0000.45
2022-11-28 23:17:00,,0807.7,5.00,0.00,22.1,20.8,00.0,31.1,23.9,08.2,0000.0,0002.37,0000.69,0000.45
2022-11-28 23:18:00,,0807.7,5.00,0.00,22.1,20.8,00.0,31.1,23.9,08.2,0000.0,0002.37,0000.70,0000.46
2022-11-28 23:19:00,,0807.7,5.00,0.00,22.1,20.8,00.0,31.1,23.9,08.3,0000.0,0002.42,0000.72,0000.45
2022-11-28 23:20:00,,0807.7,5.01,0.00,22.1,20.8,00.0,31.1,23.9,08.5,0000.0,0002.45,0000.73,0000.45
2022-11-28 23:21:00,,0807.7,5.00,0.00,22.1,20.7,00.0,31.1,23.8,08.2,0000.0,0002.36,0000.71,0000.46
2022-11-28 23:22:00,,0807.7,5.00,0.00,22.1,20.7,00.0,31.1,23.8,08.4,0000.0,0002.30,0000.68,0000.46
2022-11-28 23:23:00,,0807.7,5.00,0.00,22.1,20.7,00.0,31.1,23.8,08.6,0000.0,0002.01,0000.68,0000.47
2022-11-28 23:24:00,,0807.7,4.99,0.00,22.1,20.7,00.0,31.1,23.8,08.6,0000.0,0001.22,0000.66,0000.47
2022-11-28 23:25:00,,0807.8,5.00,0.00,22.1,20.7,00.0,31.1,23.8,08.6,0000.0,0001.23,0000.67,0000.47
2022-11-28 23:26:00,,0807.6,4.99,0.00,22.1,20.7,00.0,31.1,23.8,08.6,0000.0,0001.23,0000.69,0000.47
2022-11-28 23:27:00,,0807.7,5.01,0.00,22.1,20.7,00.0,31.1,23.9,08.2,0000.0,0001.23,0000.71,0000.47
2022-11-28 23:28:00,,0807.6,5.00,0.00,22.1,20.7,00.0,31.1,23.8,08.3,0000.0,0001.28,0000.70,0000.47
2022-11-28 23:29:00,,0807.7,5.00,0.00,22.1,20.7,00.0,31.1,23.7,08.6,0000.0,0001.37,0000.71,0000.47
2022-11-28 23:30:00,,0807.6,5.00,0.00,22.1,20.7,00.0,31.1,23.8,08.6,0000.0,0001.35,0000.72,0000.48
2022-11-28 23:31:00,,0807.6,4.99,0.00,22.1,20.7,00.0,31.1,23.8,08.7,0000.0,0001.67,0000.72,0000.48
2022-11-28 23:32:00,,0807.7,5.01,0.00,22.1,20.7,00.0,31.1,23.8,08.7,0000.0,0002.09,0000.76,0000.49
2022-11-28 23:33:00,,0808.0,5.01,0.00,22.1,20.7,00.0,31.1,23.8,08.6,0000.0,0002.09,0000.77,0000.50
2022-11-28 23:34:00,,0807.7,5.01,0.00,22.1,20.7,00.0,31.0,23.8,08.7,0000.0,0002.05,0000.78,0000.49
2022-11-28 23:35:00,,0807.7,4.99,0.00,22.1,20.7,00.0,31.0,23.8,08.7,0000.0,0002.06,0000.78,0000.49
2022-11-28 23:36:00,,0807.7,4.99,0.00,22.1,20.7,00.0,31.0,23.8,08.6,0000.0,0002.43,0000.78,0000.50
2022-11-28 23:37:00,,0807.7,5.00,0.00,22.1,20.7,00.0,31.0,23.7,08.7,0000.0,0002.47,0000.77,0000.51
2022-11-28 23:38:00,,0807.9,5.01,0.00,22.1,20.7,00.0,31.0,23.8,08.7,0000.0,0002.41,0000.72,0000.51
2022-11-28 23:39:00,,0807.9,5.01,0.00,22.1,20.7,00.0,31.0,23.8,08.7,0000.0,0002.34,0000.72,0000.52
2022-11-28 23:40:00,,0808.0,5.00,0.00,22.1,20.7,00.0,31.0,23.8,08.8,0000.0,0002.22,0000.71,0000.51
2022-11-28 23:41:00,,0807.9,4.99,0.00,22.1,20.7,00.0,31.0,23.8,08.7,0000.0,0002.15,0000.67,0000.51
2022-11-28 23:42:00,,0807.8,5.00,0.00,22.1,20.7,00.0,31.0,23.8,08.7,0000.0,0001.76,0000.64,0000.50
2022-11-28 23:43:00,,0807.9,5.00,0.00,22.1,20.7,00.0,31.0,23.8,08.4,0000.0,0001.48,0000.62,0000.49
2022-11-28 23:44:00,,0808.0,5.00,0.00,22.1,20.7,00.0,31.0,23.8,08.3,0000.0,0001.48,0000.63,0000.49
2022-11-28 23:45:00,,0808.1,5.01,0.00,22.0,20.7,00.0,31.0,23.8,08.4,0000.0,0001.53,0000.63,0000.49
2022-11-28 23:46:00,,0808.1,5.00,0.00,22.1,20.7,00.0,31.0,23.9,08.5,0000.0,0001.61,0000.64,0000.49
2022-11-28 23:47:00,,0808.1,5.00,0.00,22.1,20.7,00.0,31.0,23.9,08.6,0000.0,0001.34,0000.66,0000.49
2022-11-28 23:48:00,,0808.0,5.00,0.00,22.1,20.7,00.0,31.0,23.9,08.6,0000.0,0001.28,0000.67,0000.47
2022-11-28 23:49:00,,0808.1,4.99,0.00,22.1,20.8,00.0,31.0,23.9,08.6,0000.0,0001.19,0000.67,0000.46
2022-11-28 23:50:00,,0808.2,5.00,0.00,22.1,20.8,00.0,31.0,23.9,09.3,0000.0,0001.40,0000.71,0000.47
2022-11-28 23:51:00,,0808.3,5.00,0.00,22.1,20.7,00.0,31.0,23.9,10.0,0000.0,0003.03,0000.85,0000.54
2022-11-28 23:52:00,,0808.3,5.00,0.00,22.0,20.6,00.0,31.0,23.9,10.1,0000.0,0005.11,0001.03,0000.61
2022-11-28 23:53:00,,0808.3,5.00,0.00,22.0,20.6,00.0,31.0,23.9,10.5,0000.0,0006.85,0001.28,0000.70
2022-11-28 23:54:00,,0808.5,5.01,0.00,22.0,20.6,00.0,31.0,23.9,10.7,0000.0,0007.28,0001.48,0000.80
2022-11-28 23:55:00,,0808.5,5.00,0.00,22.0,20.6,00.0,31.0,23.9,10.7,0000.0,0007.49,0001.65,0000.90
2022-11-28 23:56:00,,0808.5,5.01,0.00,22.0,20.6,00.0,31.0,23.9,10.6,0000.0,0008.40,0001.85,0001.02
2022-11-28 23:57:00,,0808.5,4.99,0.00,22.0,20.6,00.0,31.0,23.8,10.6,0000.0,0009.08,0002.08,0001.12
2022-11-28 23:58:00,,0808.5,4.99,0.00,22.0,20.5,00.0,31.0,23.8,10.7,0000.0,0009.28,0002.22,0001.21
2022-11-28 23:59:00,,0808.5,5.00,0.00,21.9,20.4,00.0,31.0,23.7,10.8,0000.0,0009.49,0002.36,0001.32
